[[{"header":{"parameterUnit":"m.s-1","parameterCategory":1,"la1":30.2991,"la2":30.254,"lo1":-89.0895,"lo2":-89.0444,"dy":0.0017,"dx":0.0017,"nx":28,"ny":28,"refTime":"2025-01-12T03:00:00:Z","depth":0,"parameterNumber":2,"parameterNumberName":"U-component_of_WINDS"},"data":[0,0,0,0,0,0,0,0,0,0,0,0,0,0,0,0,0,0,0,0,0,0,0,0,0,0,0,0,0,0,0,0,0,0,0,0,0,0,0,0,0,0,0,0,0,0,0,0,0,0,0,0,0,0,0,0,0,0,-4.5368,-4.5368,0,-4.5374,-4.5374,-4.5374,-4.5266,-4.5263,-4.5261,-4.5258,-4.5266,-4.5269,-4.5272,0,0,0,0,0,0,0,0,0,0,0,0,0,-4.5266,-4.5268,-4.5368,-4.5368,-4.5368,-4.5374,-4.5374,-4.5374,-4.5267,-4.5263,-4.526,-4.5257,-4.5265,-4.5269,-4.5272,0,0,0,0,0,0,0,0,0,0,0,0,0,-4.5295,-4.5269,-4.5368,-4.5315,-4.5311,-4.5374,-4.5374,-4.5374,-4.5268,-4.5263,-4.5259,-4.5255,-4.5264,-4.5269,-4.5273,-4.5387,0,0,-4.5286,-4.5288,0,0,0,0,0,0,0,0,-4.5293,-4.5299,-4.5323,-4.5319,-4.5314,-4.5315,-4.5341,-4.5379,-4.5269,-4.5284,-4.5258,-4.5253,-4.5286,-4.5289,-4.5299,-4.5388,-4.5388,-4.5287,-4.5289,-4.5291,-4.5293,0,0,0,0,0,0,0,-4.5292,-4.5298,-4.537,-4.5323,-4.5318,-4.5292,-4.5291,-4.5347,-4.531,-4.5282,-4.5275,-4.5277,-4.5283,-4.5295,-4.5299,-4.5388,-4.5287,-4.5291,-4.5293,-4.5295,-4.5569,-4.5573,0,0,0,0,0,0,-4.5296,-4.5297,-4.537,-4.537,-4.5293,-4.5297,-4.5297,-4.5319,-4.5309,-4.5303,-4.528,-4.5272,-4.529,-4.5294,-4.5299,-4.543,-4.5291,-4.5295,-4.5298,-4.5564,-4.557,-4.5575,0,0,0,0,0,0,-4.5295,-4.5304,-4.537,-4.5332,-4.5338,-4.5304,-4.533,-4.5321,-4.5333,-4.5307,-4.53,-4.53,-4.5287,-4.5292,-4.5365,-4.5429,-4.5297,-4.5301,-4.5559,-4.5566,-4.5573,-4.5695,0,0,0,0,0,0,-4.5292,-4.5304,-4.5347,-4.5333,-4.534,-4.5436,-4.5334,-4.5325,-4.5341,-4.533,-4.5323,-4.5318,-4.5284,-4.5359,-4.537,-4.5432,-4.5305,-4.5553,-4.5562,-4.557,-4.5685,-4.5705,-4.5723,0,0,0,0,0,-4.5289,-4.5382,-4.5349,-4.5359,-4.5393,-4.544,-4.5444,-4.5402,-4.5347,-4.5389,-4.5372,-4.5318,-4.5421,-4.5368,-4.5379,-4.5444,-4.5549,-4.556,-4.557,-4.5677,-4.5701,-4.5722,0,0,0,0,0,0,-4.5405,-4.5379,-4.5343,-4.5434,-4.544,-4.5422,-4.5474,-4.543,-4.5452,-4.544,-4.5388,-4.5387,-4.5469,-4.5464,-4.5405,-4.5553,-4.5475,-4.5488,-4.5553,-4.5576,-4.5594,-4.5593,-4.5309,0,0,0,0,0,-4.5441,-4.5481,-4.5457,-4.554,-4.5544,-4.551,-4.5529,-4.5495,-4.5499,-4.5502,-4.549,-4.5497,-4.553,-4.5553,-4.5582,-4.5685,-4.5681,-4.5735,-4.5753,-4.5769,-4.578,-4.5832,-4.5855,-4.5609,-4.5609,-4.5609,0,0,-4.5516,-4.5507,-4.5536,-4.5563,-4.5563,-4.5606,-4.5512,-4.5562,-4.5592,-4.5509,-4.5576,-4.5569,-4.5573,-4.566,-4.5698,-4.5659,-4.5847,-4.5782,-4.5795,-4.5797,-4.5845,-4.5868,-4.5889,-4.5616,-4.5615,-4.5614,0,0,-4.5674,-4.5672,-4.574,-4.5742,-4.5744,-4.572,-4.5736,-4.5725,-4.5716,-4.5782,-4.572,-4.5757,-4.5816,-4.5821,-4.5831,-4.5991,-4.5941,-4.6002,-4.6099,-4.615,-4.6169,-4.6186,-4.6241,-4.6261,-4.6014,-4.6014,-4.6014,0,-4.5768,-4.5828,-4.5781,-4.5834,-4.5847,-4.5773,-4.5841,-4.5846,-4.5858,-4.5868,-4.5824,-4.5895,-4.5893,-4.598,-4.6018,-4.603,-4.6046,-4.6001,-4.617,-4.6187,-4.6202,-4.6253,-4.6274,-4.6021,-4.602,-4.602,-4.6019,0,-4.5942,-4.5985,-4.604,-4.6051,-4.6071,-4.6132,-4.6093,-4.6119,-4.6085,-4.6065,-4.6134,-4.6128,-4.6154,-4.6173,-4.6141,-4.6255,-4.623,-4.6179,-4.6099,-4.6233,-4.628,-4.63,-4.6032,-4.6029,-4.6027,-4.6025,0,0,-4.6172,-4.6156,-4.6177,-4.618,-4.6176,-4.6209,-4.6266,-4.629,-4.6313,-4.6324,-4.6369,-4.6421,-4.6373,-4.6385,-4.6352,-4.6397,-4.6521,-4.634,-4.6339,-4.6372,-4.6645,-4.6681,-4.6705,-4.649,-4.6493,-4.6496,-4.6644,0,-4.6324,-4.6418,-4.6377,-4.6476,-4.6515,-4.6445,-4.6494,-4.6498,-4.6482,-4.6512,-4.6495,-4.6531,-4.6466,-4.6473,-4.6515,-4.6498,-4.6575,-4.6487,-4.6531,-4.6533,-4.6529,-4.673,-4.6769,-4.6908,-4.6662,-4.6665,-4.6668,0,-4.6513,-4.6529,-4.6632,-4.662,-4.6634,-4.6679,-4.6697,-4.6728,-4.673,-4.6715,-4.6728,-4.6685,-4.674,-4.6663,-4.6737,-4.6678,-4.6694,-4.6688,-4.6693,-4.6693,-4.6606,-4.6734,-4.6952,-4.6972,-4.6697,-4.6695,-4.6692,0,-4.6667,-4.6716,-4.6783,-4.6789,-4.6776,-4.6809,-4.6806,-4.6804,-4.6821,-4.6837,-4.6847,-4.6871,-4.6884,-4.6903,-4.6867,-4.6815,-4.6947,-4.6866,-4.6934,-4.6935,-4.6963,-4.6961,-4.7185,-4.6979,-4.6978,-4.6978,-4.6977,0,-4.6839,-4.6904,-4.6852,-4.6893,-4.6963,-4.6916,-4.6987,-4.6976,-4.6975,-4.7013,-4.6955,-4.6992,-4.6944,-4.6976,-4.6949,-4.7014,-4.7021,-4.7009,-4.7001,-4.7013,-4.7014,-4.7021,-4.7009,-4.6983,-4.6982,-4.6981,-4.698,0,-4.7023,-4.6991,-4.7058,-4.7041,-4.7038,-4.7091,-4.7076,-4.7113,-4.7093,-4.7141,-4.715,-4.7119,-4.7154,-4.712,-4.7154,-4.7136,-4.7221,-4.7201,-4.722,-4.7213,-4.7282,-4.7275,-4.7515,-4.7543,-4.7322,-4.7324,-4.7326,0,-4.7133,-4.7181,-4.7169,-4.7189,-4.7188,-4.7223,-4.7239,-4.7195,-4.7214,-4.722,-4.7256,-4.7286,-4.7307,-4.7366,-4.7347,-4.7372,-4.7349,-4.7432,-4.7352,-4.7362,-4.7347,-4.7343,-4.7347,-4.7447,-4.745,-4.7452,-4.7454,0,-4.7332,-4.7313,-4.7338,-4.7358,-4.7378,-4.7392,-4.7401,-4.7422,-4.7376,-4.7401,-4.7435,-4.7451,-4.7485,-4.7514,-4.7533,-4.753,-4.7484,-4.7479,-4.7495,-4.7507,-4.7515,-4.7508,-4.7261,-4.7473,-4.7471,-4.747,-4.7469,-4.7468,-4.748,-4.7519,-4.7515,-4.7544,-4.7546,-4.7556,-4.7589,-4.7573,-4.76,-4.7622,-4.7596,-4.7637,-4.7637,-4.7658,-4.766,-4.7692,-4.7657,-4.7682,-4.7688,-4.7694,-4.7702,-4.7512,-4.7696,-4.7695,-4.7695,-4.7694,-4.7694,0,-4.7673,-4.7667,-4.7695,-4.7708,-4.7732,-4.7686,-4.7694,-4.7716,-4.7753,-4.7757,-4.7778,-4.7817,-4.7845,-4.7828,-4.7852,-4.7881,-4.786,-4.7889,-4.7884,-4.7884,-4.7733,-4.7715,-4.7905,-4.7905,-4.7905,-4.7905,-4.7904,-4.7904,-4.7776,-4.7837,-4.7819,-4.788,-4.7874,-4.7913,-4.7921,-4.7929,-4.7932,-4.7977,-4.7999,-4.7988,-4.7983,-4.8006,-4.803,-4.8024,-4.8035,-4.807,-4.8057,-4.7916,-4.7895,-4.7875,-4.7857,-4.8074,-4.8074,-4.8204,-4.8205,-4.8206]},{"header":{"parameterUnit":"m.s-1","parameterCategory":1,"la1":30.2991,"la2":30.254,"lo1":-89.0895,"lo2":-89.0444,"dy":0.0017,"dx":0.0017,"nx":28,"ny":28,"refTime":"2025-01-12T03:00:00:Z","depth":0,"parameterNumber":3,"parameterNumberName":"V-component_of_WINDS"},"data":[0,0,0,0,0,0,0,0,0,0,0,0,0,0,0,0,0,0,0,0,0,0,0,0,0,0,0,0,0,0,0,0,0,0,0,0,0,0,0,0,0,0,0,0,0,0,0,0,0,0,0,0,0,0,0,0,0,0,-0.6718,-0.6718,0,-0.6647,-0.6647,-0.6646,-0.6596,-0.6596,-0.6595,-0.6595,-0.6521,-0.6519,-0.6517,0,0,0,0,0,0,0,0,0,0,0,0,0,-0.6805,-0.6804,-0.6718,-0.6718,-0.6717,-0.6648,-0.6647,-0.6646,-0.6596,-0.6596,-0.6595,-0.6595,-0.6521,-0.6519,-0.6517,0,0,0,0,0,0,0,0,0,0,0,0,0,-0.6754,-0.6803,-0.6719,-0.6684,-0.668,-0.6648,-0.6647,-0.6645,-0.6596,-0.6595,-0.6595,-0.6594,-0.6522,-0.6519,-0.6517,-0.6514,0,0,-0.651,-0.6509,0,0,0,0,0,0,0,0,-0.6757,-0.6751,-0.669,-0.6686,-0.6682,-0.663,-0.665,-0.6601,-0.6596,-0.6628,-0.6595,-0.6594,-0.6557,-0.6552,-0.654,-0.651,-0.6507,-0.6509,-0.6508,-0.6507,-0.6506,0,0,0,0,0,0,0,-0.6761,-0.6754,-0.669,-0.6689,-0.6684,-0.6669,-0.6662,-0.664,-0.6597,-0.6625,-0.6621,-0.6614,-0.6555,-0.6542,-0.6538,-0.6506,-0.651,-0.6507,-0.6506,-0.6505,-0.6464,-0.6464,0,0,0,0,0,0,-0.677,-0.6757,-0.6693,-0.6688,-0.6719,-0.6668,-0.666,-0.6647,-0.6597,-0.6589,-0.6614,-0.6612,-0.6547,-0.6541,-0.6535,-0.6524,-0.6507,-0.6505,-0.6503,-0.6464,-0.6464,-0.6464,0,0,0,0,0,0,-0.6772,-0.6765,-0.6695,-0.6721,-0.6711,-0.6668,-0.6654,-0.6646,-0.6633,-0.6589,-0.658,-0.661,-0.6546,-0.6538,-0.6518,-0.6521,-0.6504,-0.6501,-0.6463,-0.6464,-0.6464,-0.6506,0,0,0,0,0,0,-0.6775,-0.6766,-0.6766,-0.6722,-0.671,-0.6682,-0.6654,-0.6645,-0.663,-0.6625,-0.6582,-0.6574,-0.6545,-0.6522,-0.6516,-0.6518,-0.65,-0.6463,-0.6463,-0.6464,-0.6504,-0.6508,-0.6511,0,0,0,0,0,-0.6778,-0.6782,-0.6766,-0.6759,-0.671,-0.6682,-0.6675,-0.6642,-0.663,-0.6628,-0.6598,-0.6576,-0.6522,-0.6521,-0.6513,-0.6514,-0.6462,-0.6463,-0.6464,-0.6502,-0.6507,-0.6511,0,0,0,0,0,0,-0.6828,-0.6775,-0.6758,-0.6748,-0.672,-0.6674,-0.6672,-0.6649,-0.6624,-0.6621,-0.658,-0.657,-0.6553,-0.6531,-0.6531,-0.6505,-0.6489,-0.6488,-0.6521,-0.6525,-0.6528,-0.6533,-0.6498,0,0,0,0,0,-0.6838,-0.6821,-0.6775,-0.677,-0.6757,-0.6716,-0.6703,-0.6679,-0.6649,-0.6637,-0.6606,-0.6576,-0.6551,-0.6537,-0.6512,-0.65,-0.6487,-0.6496,-0.65,-0.6503,-0.6503,-0.6489,-0.6492,-0.6467,-0.6467,-0.6467,0,0,-0.6858,-0.6827,-0.6819,-0.6779,-0.6755,-0.6736,-0.6707,-0.669,-0.6675,-0.6634,-0.6613,-0.6588,-0.6551,-0.6534,-0.6525,-0.6515,-0.6506,-0.6504,-0.6507,-0.6505,-0.6491,-0.6493,-0.6495,-0.6468,-0.6467,-0.6467,0,0,-0.6885,-0.6861,-0.6852,-0.6827,-0.679,-0.6762,-0.676,-0.6716,-0.6698,-0.6676,-0.6643,-0.6623,-0.6584,-0.6558,-0.6539,-0.655,-0.6526,-0.6543,-0.6561,-0.6549,-0.6551,-0.6552,-0.6553,-0.6554,-0.6543,-0.6543,-0.6543,0,-0.6915,-0.6887,-0.6851,-0.6834,-0.6815,-0.6776,-0.6765,-0.6742,-0.6699,-0.6686,-0.6676,-0.6621,-0.6594,-0.6568,-0.657,-0.6557,-0.655,-0.6548,-0.6553,-0.6555,-0.6555,-0.6555,-0.6556,-0.6545,-0.6545,-0.6544,-0.6544,0,-0.6924,-0.6904,-0.6901,-0.6859,-0.684,-0.6827,-0.6785,-0.677,-0.6746,-0.6718,-0.6693,-0.6658,-0.6624,-0.6615,-0.6593,-0.6584,-0.6579,-0.6562,-0.6544,-0.656,-0.656,-0.656,-0.6548,-0.6547,-0.6546,-0.6546,0,0,-0.6984,-0.6918,-0.6917,-0.6896,-0.6849,-0.6833,-0.6815,-0.6781,-0.6767,-0.6736,-0.6718,-0.6683,-0.6665,-0.6644,-0.6617,-0.6606,-0.6612,-0.6589,-0.6588,-0.6593,-0.6595,-0.6608,-0.6609,-0.6595,-0.6595,-0.6595,-0.6597,0,-0.7002,-0.697,-0.6934,-0.6913,-0.6892,-0.6852,-0.6835,-0.6803,-0.6775,-0.6752,-0.672,-0.6694,-0.6674,-0.6661,-0.6648,-0.6614,-0.6612,-0.6614,-0.6576,-0.6575,-0.6586,-0.6609,-0.6624,-0.6628,-0.6597,-0.6597,-0.6597,0,-0.7021,-0.6991,-0.6969,-0.6919,-0.6909,-0.6896,-0.6858,-0.6837,-0.6798,-0.6778,-0.6752,-0.6722,-0.6697,-0.6682,-0.6645,-0.6647,-0.6629,-0.6609,-0.6608,-0.6603,-0.6587,-0.6603,-0.6629,-0.6629,-0.6597,-0.6597,-0.6597,0,-0.7064,-0.7018,-0.6998,-0.6981,-0.6924,-0.6914,-0.6889,-0.685,-0.683,-0.6796,-0.6782,-0.6747,-0.6727,-0.6698,-0.6658,-0.6651,-0.6624,-0.6606,-0.6605,-0.6606,-0.6602,-0.6603,-0.6623,-0.6592,-0.6592,-0.6592,-0.6592,0,-0.7089,-0.7076,-0.7016,-0.7003,-0.6985,-0.6942,-0.6925,-0.6896,-0.686,-0.6839,-0.6801,-0.6781,-0.673,-0.6702,-0.667,-0.6643,-0.6635,-0.6615,-0.6607,-0.6619,-0.6621,-0.6606,-0.6604,-0.6592,-0.6592,-0.6592,-0.6592,0,-0.7135,-0.7095,-0.7069,-0.7015,-0.7001,-0.699,-0.6943,-0.6927,-0.6895,-0.6868,-0.6859,-0.6808,-0.6773,-0.673,-0.6683,-0.666,-0.6635,-0.6623,-0.6649,-0.6644,-0.6644,-0.6643,-0.6655,-0.6653,-0.6624,-0.6625,-0.6625,0,-0.7153,-0.7142,-0.7086,-0.7069,-0.7045,-0.7019,-0.6997,-0.6952,-0.6931,-0.6882,-0.6871,-0.6833,-0.6801,-0.6747,-0.6704,-0.6666,-0.6652,-0.6658,-0.6646,-0.6656,-0.6649,-0.665,-0.6647,-0.6662,-0.6662,-0.6663,-0.6663,0,-0.7188,-0.7168,-0.7139,-0.7102,-0.7077,-0.7046,-0.7012,-0.7,-0.6947,-0.6924,-0.6888,-0.6863,-0.6812,-0.6774,-0.6729,-0.67,-0.6671,-0.6667,-0.6664,-0.6675,-0.669,-0.6679,-0.6656,-0.6667,-0.6667,-0.6666,-0.6666,-0.6666,-0.722,-0.7206,-0.7163,-0.7131,-0.7101,-0.7069,-0.705,-0.7015,-0.6984,-0.694,-0.6914,-0.6878,-0.6833,-0.6769,-0.6741,-0.671,-0.67,-0.6697,-0.6695,-0.6695,-0.6697,-0.6695,-0.6702,-0.6702,-0.6701,-0.6701,-0.6701,0,-0.7251,-0.7221,-0.7192,-0.7145,-0.7118,-0.7093,-0.7053,-0.7032,-0.7001,-0.6962,-0.693,-0.6886,-0.6847,-0.68,-0.6757,-0.674,-0.6726,-0.6731,-0.6731,-0.6724,-0.671,-0.6716,-0.6743,-0.6743,-0.6743,-0.6743,-0.6743,-0.6743,-0.7265,-0.7239,-0.7212,-0.7169,-0.7138,-0.7103,-0.7082,-0.705,-0.7019,-0.6971,-0.6939,-0.6908,-0.6864,-0.6817,-0.6778,-0.6765,-0.675,-0.6759,-0.6741,-0.6729,-0.6726,-0.6722,-0.6727,-0.6756,-0.6756,-0.6757,-0.6757,-0.6757]}]]